Simultaneous Nadir Overpasses (SNOs) Predictions

Prediction of SNOs between AQUA and NOAA-19 Satellite Orbit:

Table of predicted SNOs for the next 14.0 days since TLE Epoch: 1/7/2023
Index Date (AQUA) Time (AQUA) Lat,Lon (AQUA) SZA (AQUA ) Date (NOAA-19) Time (NOAA-19) Lat,Lon (NOAA-19) SZA (NOAA-19 ) Distance(km) Time Diff (sec)
1 01/08/2023 19:26:40 -76.95, 55.66 80.56 01/08/2023 19:26:46 -76.91, 55.64 80.59 3.93 6
2 01/11/2023 00:09:47 -76.41, -13.26 81.48 01/11/2023 00:08:43 -76.35, -17.03 81.31 98.96 64
3 01/11/2023 00:59:24 76.93, 152.56 99.11 01/11/2023 00:59:25 76.91, 152.56 99.10 1.53 1
4 01/13/2023 06:32:07 -76.93,-110.62 81.23 01/13/2023 06:32:13 -76.92,-110.54 81.25 2.43 6
5 01/15/2023 11:15:14 -76.46,-179.73 82.16 01/15/2023 11:14:09 -76.39, 176.89 82.02 88.37 65
6 01/15/2023 12:04:50 76.93, -13.77 98.39 01/15/2023 12:04:53 76.90, -13.72 98.36 3.39 3
7 01/17/2023 17:37:31 -76.90, 83.20 82.07 01/17/2023 17:37:40 -76.90, 83.15 82.07 1.25 9
8 01/19/2023 22:20:40 -76.57, 13.55 82.90 01/19/2023 22:19:32 -76.53, 11.22 82.79 60.52 68
9 01/19/2023 23:10:13 76.91,-180.00 97.49 01/19/2023 23:10:20 76.91,-179.91 97.49 2.16 7



Historial Predications of SNOs between AQUA and NOAA-19
